Showing default

INTELSAT 33E, 41748

Orbit data source: Space-Track

INTELSAT 33E, 41748 is a payload satellite owned by Intelsat SA (US) (US) in GEO that was launched on Wed, 24 Aug 2016 UTC via an ARIANE 5ECA launch vehicle from the French Guiana (FRGUI). Payload-class satellites include a variety of spacecraft equipped with specific instruments for various scientific and technological missions. These include communications satellites like Starlink; space stations such as the ISS; scientific satellites like the Hubble; Earth observation satellites from companies like Planet Labs, Umbra, and HawkEye 360; GPS; miniature CubeSats for education and research; and military/defense satellites.

Not visible in the next 10 days
Identifier
41748, 2016-053B
Orbit
GEO
Country
Flag of USUS / ITSO
Related business
Manufacturer
Boeing/ES
Mission
Non-operational Commercial Communications
Bus & Motor
BSS-702MP, LEROS-2B
Mass
6,552 kg wet, ~2,946 kg dry
Launch date (UTC)
2016-08-24 (10 years ago)
Launch vehicle
ARIANE 5ECA
Launch site
French Guiana (FRGUI)
Object type
Payload
Rocket body
Debris
Shape & HBR
Box + 2 Pan, 22.0 m
Radar Cross Section
59.953 m², Large (>1 m²)

Expand to show TLE details & history
Last TLE update: 12 hours ago

TLE from 12 hours ago
0 INTELSAT 33E
1 41748U 16053B   26257.79390769  .00000130  00000-0  00000-0 0  9995
2 41748   1.8011  82.8744 0023670 190.7393  30.8236  1.00223277 37141
Epoch: 2026-09-14T19:03Z
TLE epoch observation values (Epoch: 2026-09-14T19:03:13.624Z)
Latitude
-1.18123°
Longitude
24.97805°
Altitude
35,714.479 km
Speed
3.08 km/s
True Right ascension
20h 18m 12s
True Declination
-1° 10' 48"
Sunlit
Object was in daylight at epoch
Visualization orbit readout
Latitude
Unknown
Longitude
Unknown
Altitude
Unknown
Speed
Unknown
Apparent Right ascension
Unknown
Apparent Declination
Unknown
Sunlit
N/A
Visualization observer readout
Local Sidereal Time
00:02:31
Azimuth
Unknown
Elevation
Unknown
Doppler factor
Unknown
Orbital elements
Apogee altitude
35,901.106 km
Perigee altitude
35,701.429 km
Semi-major axis
42,179.405 km
Eccentricity
0.00237
Inclination
1.8011°
RAAN
82.8744°
Arg. of periapsis
190.7393°
True anomaly
30.96294°
Mean anomaly
30.8236°
Eccentric anomaly
30.89323°
Mean motion
0.25055 °/min
Orbital period
1,436.85 mins
BSTAR
0
Loading maneuver chart data...
Computing Atmospheric mass density...
Loading historical data...
Loading historical data...
Loading historical data...
Loading historical data...
Loading historical data...
Loading historical data...
Loading historical data...

Documentation

Showing up to 5 results
|